User: anonymous   Login
Location: Unspecified
(0.0000°N, 0.0000°E)
Time: 19:42:13
(UTC+00:00)
Language:

Sunsat (SO-35) - Orbit

View from above orbital plane
View from above orbital plane
View from above satellite
View from above satellite

Ground track
Ground track

The orbit data is extracted from the following two-line orbital elements,

1 25636U 99008C   18145.92186771 +.00000035 +00000-0 +17312-4 0  9994
2 25636 096.4519 318.4551 0144363 315.9055 043.0702 14.44653493013995
Epoch (UTC): 25 May 2018 22:07:29
Eccentricity: 0.0144363
inclination: 96.4519°
perigee height: 640 km
apogee height: 846 km
right ascension of ascending node: 318.4551°
argument of perigee: 315.9055°
revolutions per day: 14.44653493
mean anomaly at epoch: 43.0702°
orbit number at epoch: 1399

The dashed part of the orbit path shows where the satellite is in the earth's shadow,  

DLR